SCP
0 0 0 0 0 0 0 0 0 0 0 0 0 0 0 0 0 0 0 0 0 0 1 1 1 0 1 1 1 1 1 1 1 1 1 1 1 2
0 0 0 0 0 0 0 0 0 0 0 0 0 0 0 0 0 0 0 0 0 0 0 0 0 0 0 1 1 1 1 1 1 1 1 1 1 1
0 0 0 0 0 0 0 0 0 0 0 0 0 0 0 0 0 0 0 0 0 0 0 0 0 0 0 0 0 0 1 1 0 0 0 1 1 1
1 1 0 0 0 0 0 0 0 0 0 0 0 0 0 0 0 0 0 0 0 0 0 0 0 0 0 0 0 0 0 0 0 0 0 0 0 0
1 1 0 0 0 0 0 0 0 0 0 0 0 0 0 0 0 0 0 0 0 0 0 0 0 0 0 0 0 0 0 0 0 0 0 0 0 0
0 0 0 0 0 0 0 0 0 0 0 0 0 0 0 0 0 0 0 0 0 0 0 0 0 0 0 0 0 0 0 0 0 0 0 0 0 0
0 0 0 0 0 0 0 0 0 0 0 0 0 0 0 0 0 0 0 0 0 0 0 0 0 0 0 0 0 0 0 0 0 0 0 0 0 0
0 0 0 0 0 0 0 0 0 0 0 0 0 0 0 0 0 0 0 0 0 0 0 0 0 0 0 0 0 0 0 0 0 0 0 0 0 0
0 0 0 0 0 0 0 0 0 0 0 0 0 0 0 0 0 0 0 0 0 0 0 0 0 0 0 0 0 0 0 0 0 0 0 0 0 0
0 0 0 0 0 0 0 0 0 0 0 0 0 0 0 0 0 0 0 0 0 0 0 0 0 0 0 0 0 0 0 0 0 0 0 0 0 0
0 0 0 0 0 0 0 0 0 0 0 0 0 0 0 0 0 0 0 0 0 0 0 0 0 0 0 0 0 0 0 0 0 0 0 0 0 0
0 0 0 0 0 0 0 0 0 0 0 0 0 0 0 0 0 0 0 0 0 0 0 0 0 0 0 0 0 0 0 0 0 0 0 0 0 0
0 0 0 0 0 0 0 0 0 0 0 0 0 0 0 0 0 0 0 0 0 0 0 0 0 0 0 0 0 0 0 0 0 0 0 0 0 0
0 0 0 0 0 0 0 0 0 0 0 0 0 0 0 0 0 0 0 0 0 0 0 0 0 0 0 0 0 0 0 0 0 0 0 0 0 0
0 0 0 0 0 0 0 0 0 0 0 0 0 0 0 0 0 0 0 0 0 0 0 0 0 0 0 0 0 0 0 0 0 0 0 0 0 0
0 0 0 0 0 0 0 0 0 0 0 0 0 0 0 0 0 0 0 0 0 0 0 0 0 0 0 0 0 0 0 0 0 0 0 0 0 0
0 0 0 0 0 0 0 0 0 0 0 0 0 0 0 0 0 0 0 0 0 0 0 0 0 0 0 0 0 0 0 0 0 0 0 0 0 0
0 0 0 0 0 0 0 0 0 0 0 0 0 0 0 0 0 0 0 0 0 0 0 0 0 0 0 0 0 0 0 0 0 0 0 0 0 0
0 0 0 0 0 0 0 0 0 0 0 0 0 0 0 0 0 0 0 0 0 0 0 0 0 0 0 0 0 0 0 0 0 0 0 0 0 0
0 0 0 0 0 0 0 0 0 0 0 0 0 0 0 0 0 0 0 0 0 0 0 0 0 0 0 0 0 0 0 0 0 0 0 0 0 0
0 0 0 0 0 0 0 0 0 0 0 0 0 0 0 0 0 0 0 0 0 0 0 0 0 0 0 0 0 0 0 0 0 0 0 0 0 0
0 0 0 0 0 0 0 0 0 0 0 0 0 0 0 0 0 0 0 0 0 0 0 0 0 0 0 0 0 0 0 0 0 0 0 0 0 0
0 0 0 0 0 0 0 0 0 0 0 0 0 0 0 0 0 0 0 0 0 0 0 0 0 0 0 0 0 0 0 0 0 0 0 0 0 0
Wind_Speed
6 7 5 5 5 5 5 5 4 4 4 3 2 1 1 1 2 2 2 3 4 4 4 5 5 6 7 7 7 8 8 8 9 10 11 13 14 15
5 6 6 5 5 5 5 5 5 5 5 3 3 2 3 3 2 2 2 2 2 2 3 3 4 4 5 6 6 6 7 7 7 8 9 10 11 11
5 6 7 6 5 5 5 6 6 6 7 5 3 2 3 3 2 1 1 1 1 2 3 4 5 5 5 5 6 6 7 7 7 8 8 9 9 10
6 6 8 6 7 6 6 7 7 7 6 7 4 3 3 3 2 1 0 1 2 4 5 6 6 6 7 7 6 6 6 6 6 7 8 8 8 9
6 7 7 7 8 7 7 7 6 6 6 5 4 2 2 2 1 0 2 2 3 5 7 7 8 8 9 9 8 8 8 8 8 9 10 10 11 11
7 7 7 8 9 9 8 8 7 7 6 5 5 3 2 2 2 2 2 2 3 4 6 7 10 11 10 11 11 11 11 11 12 12 13 13 13 13
7 7 8 10 12 10 8 8 8 7 6 6 5 4 4 3 3 3 3 4 3 3 5 5 5 6 7 9 12 13 13 13 14 14 14 14 14 15
8 8 8 10 12 13 14 12 11 9 8 7 6 7 6 5 4 4 5 5 3 3 4 5 4 6 5 5 9 12 13 13 14 15 15 15 15 15
8 8 7 7 9 8 10 12 13 13 12 9 8 8 8 8 8 7 6 5 4 5 5 5 4 6 5 6 11 12 13 13 14 14 15 15 15 15
9 9 9 8 8 8 8 8 9 10 11 10 9 9 8 8 9 8 7 6 6 4 4 5 4 5 5 5 9 11 12 13 13 14 15 15 14 14
9 9 9 9 10 10 9 8 8 7 8 10 10 9 9 10 9 8 8 9 7 4 2 5 5 5 5 5 7 10 11 12 12 13 14 14 14 13
7 7 10 10 10 11 9 8 9 7 6 6 6 7 8 10 13 10 10 10 8 5 4 5 6 5 5 3 4 5 7 9 11 12 13 13 11 9
6 6 6 10 11 12 10 8 8 7 7 6 6 6 6 7 7 6 7 9 9 5 7 6 6 4 6 5 3 3 4 5 6 7 9 10 9 8
6 6 6 9 10 11 9 8 8 8 5 5 6 6 7 7 6 6 6 5 4 6 9 8 6 6 7 7 5 4 4 4 5 6 6 7 7 8
6 7 7 8 7 7 8 9 9 6 6 6 6 6 6 7 7 6 7 7 7 7 8 7 8 7 7 7 7 6 5 4 4 6 6 6 5 5
4 4 5 6 5 5 5 7 6 6 6 6 6 6 6 7 7 7 7 8 7 5 5 6 8 9 7 7 8 8 6 6 5 5 5 4 4 4
3 2 2 3 4 4 4 4 5 6 6 5 6 7 8 8 7 7 7 7 7 7 6 5 6 6 7 8 9 8 6 5 6 6 6 5 3 4
4 3 3 4 4 4 5 5 4 5 6 6 7 8 8 9 8 7 7 8 8 8 8 7 9 8 6 6 3 8 6 5 5 6 5 5 5 4
4 4 4 4 4 4 4 4 4 5 5 7 7 8 8 8 8 8 8 8 8 8 8 8 9 9 9 7 3 2 6 6 6 5 4 4 4 4
3 3 3 3 3 4 4 4 4 5 6 6 7 8 8 8 8 8 8 10 9 8 8 7 7 8 8 7 6 4 4 6 6 6 4 3 2 2
3 3 3 4 3 4 4 5 6 6 7 7 7 8 8 8 8 8 8 11 10 8 9 7 5 7 6 6 6 5 3 2 4 5 6 5 4 3
3 3 3 4 4 4 5 5 6 6 7 7 7 7 7 8 9 10 9 9 8 8 8 6 7 6 5 6 7 6 5 4 3 3 4 5 5 6
2 3 3 3 4 4 5 6 7 6 7 7 7 7 8 8 8 8 9 8 8 9 9 7 5 4 4 5 5 5 6 5 4 4 3 4 6 5
Wind_Direction
221 218 221 220 213 213 210 207 217 250 265 252 254 266 269 295 287 275 266 257 243 236 234 229 223 215 208 206 204 204 203 209 211 211 208 207 211 215
222 220 224 223 218 217 216 216 215 224 248 241 238 261 285 290 288 273 261 241 246 218 203 196 190 179 177 182 176 178 184 189 194 199 202 203 204 203
232 224 230 223 219 219 217 217 218 217 241 254 241 249 260 269 284 284 262 232 176 148 149 144 140 138 141 146 158 168 174 182 187 187 187 189 189 189
240 233 234 228 223 220 217 220 221 219 229 248 247 238 242 252 252 245 220 126 121 112 120 123 122 122 122 124 131 138 145 150 153 156 152 152 151 149
240 240 239 230 228 223 221 221 221 222 222 233 243 229 230 230 228 173 121 112 105 102 99 101 104 106 106 107 108 109 114 119 121 120 117 115 114 117
242 241 241 235 232 226 222 222 217 217 219 226 231 228 223 205 187 174 145 120 105 96 88 88 93 93 96 101 103 103 103 106 108 107 105 104 103 103
251 248 245 244 239 229 222 215 210 212 212 219 221 216 209 191 190 172 154 127 91 104 104 92 91 88 86 92 98 102 102 103 103 102 101 100 100 100
249 253 253 253 249 236 227 216 207 208 209 212 216 215 209 195 179 170 158 149 134 135 111 94 91 89 80 84 97 101 102 103 104 103 102 101 100 99
241 247 254 250 239 234 229 223 218 216 210 209 218 216 204 189 177 178 176 160 142 148 121 100 90 88 82 88 98 102 104 105 106 105 104 103 102 101
239 240 242 248 239 226 224 221 221 220 216 216 223 219 208 192 184 175 159 130 112 124 117 110 104 92 88 86 94 101 105 107 108 109 108 106 105 103
243 240 237 241 236 222 219 221 221 226 223 221 220 213 196 180 165 150 153 149 141 137 115 114 123 105 88 83 90 97 105 111 114 115 115 114 112 108
244 240 235 234 231 215 215 216 219 217 204 199 199 190 183 174 169 169 166 160 146 141 150 128 142 132 109 83 92 102 105 108 114 116 120 122 122 115
238 237 234 227 226 216 210 213 218 205 195 187 182 175 168 169 173 171 170 165 156 145 155 141 145 132 122 127 115 109 120 127 125 120 123 126 127 125
232 234 233 226 225 217 210 207 201 191 185 180 177 172 168 166 164 157 149 140 128 137 149 143 138 143 133 132 132 128 117 127 134 133 131 126 110 98
230 231 230 227 225 221 210 192 187 191 182 180 179 174 166 156 145 137 126 115 102 113 131 132 132 138 139 137 137 140 134 131 139 139 141 144 143 139
225 222 218 223 218 202 187 186 195 193 184 177 169 158 149 147 147 145 140 136 124 110 94 120 139 140 134 133 139 143 143 144 149 146 139 136 140 149
186 189 193 197 201 190 184 180 179 177 173 164 160 154 150 145 144 146 142 140 136 138 129 108 97 95 105 135 143 145 141 136 147 147 146 145 152 163
178 193 196 201 203 187 176 168 170 170 166 162 157 151 148 145 142 143 145 145 140 138 135 136 134 120 102 63 93 146 141 137 142 149 152 157 167 176
192 198 194 196 191 175 164 160 163 162 158 156 151 147 144 142 143 145 146 143 139 137 139 146 150 147 148 143 110 127 148 140 145 151 163 166 174 178
203 195 192 190 184 169 155 154 154 151 149 145 144 144 143 143 145 147 148 146 142 138 138 146 156 155 156 150 141 138 151 149 155 159 157 141 120 107
195 192 190 188 181 166 153 155 153 148 145 142 141 141 143 143 144 146 142 140 139 142 148 148 132 118 107 111 119 126 139 144 156 157 157 157 163 176
181 186 184 181 169 161 153 150 146 143 143 142 142 141 142 143 144 144 145 146 146 142 134 123 130 131 132 145 147 143 142 136 128 140 167 172 175 190
170 172 169 169 159 152 147 149 148 146 145 144 142 141 142 141 141 142 143 142 138 134 130 132 138 136 133 142 145 147 153 157 161 170 195 223 234 238